Location: Neuvy Saint Sepulchre
(46.5953°N, 1.8122°E)
Time: 13:40:27
(UTC+02:00)

ISS - Pass Details

Date: 21 September 2022
Orbit: 414 x 417 km, 51.6° (Epoch: 01 October)

Event Time Altitude Azimuth Distance (km) Brightness Sun altitude
Rises 20:30:21 0° 253° (WSW) 2,356 1.4 -7.3°
Reaches altitude 10° 20:32:27 10° 256° (WSW) 1,495 0.3 -7.6°
Maximum altitude 20:35:47 62° 338° (NNW) 476 -3.3 -8.2°
Drops below altitude 10° 20:39:08 10° 61° (ENE) 1,502 -1.4 -8.8°
Enters shadow 20:39:38 - 62° (ENE) 1,709 -1.1 -8.9°
